Content
SEND FEEDBACK

Czech Republic Flag

SCHLAPANITZ, CZECH REPUBLIC


Home > Europe > Czech Republic
Elevation: 807 feet     Latitude: 49 01N     Longitude: 016 42E

WEATHER
 
SELECT A DAY
Number of Records: 331,981;   Date Range: 2/20/97 - 3/22/16
 
SHARE

PRINT THIS DATA

[ ← Previous Day ]
WEATHER ALMANAC - JANUARY 30, 2013
[ Next Day → ]
[ °C ]   °F
Weather ElementAverageHighLow
Temperature39.1 °F44.6 °F (2:30 pm)35.6 °F (12:30 am)
Dewpoint36.8 °F41 °F (3:00 pm)33.8 °F (12:30 am)
Humidity91.4 %100 % (7:34 am)81 % (2:30 pm)
Barometer29.86 in29.98 in (1:00 am)29.71 in (9:30 pm)
Wind Speed3.5 mph15 mph (11:00 pm)
Wind Gust27.6 mph (11:00 pm)
Weather ElementAverage
Visibility4.2 mi
Wind DirectionESE (117.8 °)

Weather ElementTotal
Precipitation---
Heating Degree Days24.9 (Base 65)
Averaged from 67 records on January 30, 2013
WEATHER CONDITIONS BREAKOUT
WIND DIRECTION BREAKOUT
WEATHER BY HOUR - JANUARY 30, 2013
[ °C ]   °F
Local TimeTemperatureDewpointHumidityBarometerVisibilityWind DirectionWind SpeedGust SpeedPrecipitationEventsConditions
12:30 AM35.6 °F33.8 °F93 %29.95 in6.2 miSSW (210°)3.5 mphMostly Cloudy
1:00 AM37.0 °F34.0 °F84 %29.98 in25.0 miWSW (250°)2.2 mphOvercast
1:00 AM35.6 °F33.8 °F93 %29.92 in6.2 miVariable2.3 mphMostly Cloudy
1:30 AM35.6 °F33.8 °F93 %29.95 in6.2 miVariable1.2 mphMostly Cloudy
2:00 AM35.6 °F33.8 °F93 %29.92 in6.2 miSSW (210°)3.5 mphMostly Cloudy
2:30 AM35.6 °F33.8 °F93 %29.92 in6.2 miSSW (200°)4.6 mphRainLight Rain
3:00 AM35.6 °F33.8 °F93 %29.92 in6.2 miSSW (210°)2.3 mphRainLight Rain
3:30 AM35.6 °F33.8 °F93 %29.92 in6.2 miSSW (210°)5.8 mphRainLight Rain
4:00 AM35.6 °F33.8 °F93 %29.92 in5.0 miSSW (210°)5.8 mphRainLight Rain
4:30 AM35.6 °F33.8 °F93 %29.92 in3.1 miSSW (200°)5.8 mphRainLight Rain
4:55 AM35.6 °F33.8 °F93 %29.92 in1.9 miSSW (210°)4.6 mphRainLight Rain
5:00 AM35.6 °F33.8 °F93 %29.92 in1.6 miSSW (210°)4.6 mphRainLight Rain
5:21 AM35.6 °F33.8 °F93 %29.92 in0.9 miSSW (210°)5.8 mphRainLight Rain
5:30 AM35.6 °F33.8 °F93 %29.92 in0.9 miSSW (210°)4.6 mphRainLight Rain
5:38 AM35.6 °F33.8 °F93 %29.92 in0.5 miSouth (190°)3.5 mphFog-RainLight Rain
5:41 AM35.6 °F33.8 °F93 %29.92 in0.4 miSouth (190°)3.5 mphFog-RainLight Rain
6:00 AM35.6 °F33.8 °F93 %29.92 in0.2 miVariable2.3 mphFog-RainLight Rain
6:30 AM35.6 °F33.8 °F93 %29.92 in0.2 miCalmFog-RainLight Rain
7:00 AM35.6 °F33.8 °F93 %29.92 in0.2 miCalmFog-RainLight Rain
7:15 AM35.6 °F33.8 °F93 %29.92 in0.2 miSSW (200°)2.3 mphFog-RainLight Rain
7:30 AM35.6 °F33.8 °F93 %29.92 in0.5 miSW (220°)3.5 mphFog-RainLight Rain
7:34 AM35.6 °F35.6 °F100 %29.92 in0.9 miSW (230°)3.5 mphRainLight Rain
7:46 AM37.4 °F35.6 °F93 %29.92 in1.0 miSW (230°)3.5 mphRainLight Rain
8:00 AM37.4 °F35.6 °F93 %29.92 in1.0 miSSW (210°)3.5 mphMostly Cloudy
8:30 AM37.4 °F35.6 °F93 %29.92 in0.5 miSSW (210°)4.6 mphFogFog
8:34 AM37.4 °F35.6 °F93 %29.92 in0.2 miSSW (210°)4.6 mphFogFog
8:38 AM37.4 °F35.6 °F93 %29.92 in0.2 miSW (220°)4.6 mphFogFog
8:50 AM37.4 °F35.6 °F93 %29.92 in0.2 miSSW (210°)3.5 mphFogFog
9:00 AM37.4 °F35.6 °F93 %29.92 in0.1 miSSW (210°)3.5 mphFogFog
9:30 AM37.4 °F35.6 °F93 %29.92 in0.2 miWest (260°)5.8 mphFogFog
9:49 AM37.4 °F35.6 °F93 %29.92 in0.9 miSW (220°)3.5 mphMostly Cloudy
10:00 AM37.4 °F35.6 °F93 %29.92 in1.1 miSSW (210°)2.3 mphMostly Cloudy
10:18 AM39.2 °F39.2 °F100 %29.92 inSSW (210°)2.3 mphMostly Cloudy
10:30 AM39.2 °F37.4 °F93 %29.92 in1.4 miSW (220°)4.6 mphFogShallow Fog
10:42 AM39.2 °F37.4 °F93 %29.89 in0.5 miVariable2.3 mphMostly Cloudy
10:48 AM39.2 °F39.2 °F100 %29.89 in0.4 miVariable1.2 mphMostly Cloudy
11:00 AM41.0 °F39.2 °F93 %29.89 in0.5 miVariable1.2 mphMostly Cloudy
11:30 AM39.2 °F37.4 °F93 %29.89 in0.4 miCalmFogPatches of Fog
12:00 PM41.0 °F39.2 °F93 %29.89 inNNE (30°)3.5 mphFogShallow Fog
12:21 PM41.0 °F37.4 °F87 %29.86 in3.7 miVariable2.3 mphMostly Cloudy
12:30 PM41.0 °F39.2 °F93 %29.86 in5.0 miVariable1.2 mphScattered Clouds
1:00 PM39.2 °F37.4 °F93 %29.86 in6.2 miESE (120°)2.3 mphScattered Clouds
1:00 PM40.0 °F38.0 °F89 %29.90 in11.0 miSE (130°)4.5 mphPartly Cloudy
1:30 PM41.0 °F39.2 °F93 %29.86 in6.2 miVariable2.3 mphScattered Clouds
2:00 PM42.8 °F39.2 °F87 %29.83 in6.2 miNE (40°)2.3 mphScattered Clouds
2:30 PM44.6 °F39.2 °F81 %29.83 in6.2 miVariable1.2 mphScattered Clouds
3:00 PM44.6 °F41.0 °F87 %29.83 in6.2 miVariable2.3 mphScattered Clouds
3:30 PM42.8 °F39.2 °F87 %29.80 in6.2 miNNE (20°)4.6 mphMostly Cloudy
3:53 PM42.8 °F39.2 °F87 %29.80 in6.2 miNE (40°)4.6 mphRainLight Rain
4:00 PM42.8 °F39.2 °F87 %29.80 in6.2 miNE (40°)4.6 mphRainLight Rain
4:30 PM42.8 °F39.2 °F87 %29.80 in6.2 miNE (50°)4.6 mphRainLight Rain
5:00 PM44.6 °F41.0 °F87 %29.80 in6.2 miNE (50°)3.5 mphMostly Cloudy
5:30 PM42.8 °F39.2 °F87 %29.77 in6.2 miEast (100°)2.3 mphMostly Cloudy
6:00 PM42.8 °F39.2 °F87 %29.77 in6.2 miNE (40°)6.9 mphMostly Cloudy
6:30 PM42.8 °F41.0 °F93 %29.77 in6.2 miNE (50°)6.9 mphScattered Clouds
7:00 PM43.0 °F40.0 °F85 %29.79 in19.0 miNW (310°)2.2 mphPartly Cloudy
7:00 PM42.8 °F41.0 °F93 %29.74 in6.2 miVariable1.2 mphPartly Cloudy
7:30 PM42.8 °F39.2 °F87 %29.74 inNE (50°)4.6 mphClear
8:00 PM42.8 °F39.2 °F87 %29.74 inVariable2.3 mphClear
8:30 PM42.8 °F39.2 °F87 %29.74 inCalmClear
9:00 PM41.0 °F39.2 °F93 %29.74 inNE (40°)5.8 mphClear
9:19 PM41.0 °F39.2 °F93 %29.74 in6.2 miVariable2.3 mphRainLight Rain
9:30 PM41.0 °F37.4 °F87 %29.71 in6.2 miVariable1.2 mphRainLight Rain
10:00 PM41.0 °F39.2 °F93 %29.71 in6.2 miVariable2.3 mphRainLight Rain
10:30 PM41.0 °F39.2 °F93 %29.71 in6.2 miVariable2.3 mphRainLight Rain
11:00 PM42.8 °F39.2 °F87 %29.77 in6.2 miNW (310°)15.0 mph27.6 mphRainLight Rain
11:30 PM41.0 °F37.4 °F87 %29.77 in6.2 miWest (280°)6.9 mphRainLight Rain
Hourly data recorded from LKTB, located miles away from Schlapanitz, Czech Republic




STORIES FROM OUR PARTNERS